Location: St Paul
(33.9360°N, 83.4200°W)
Time: 06:15:51
(UTC-04:00)

Meteor 2-15 Rocket - Pass Details

Date: 06 October 2017
Orbit: 939 x 956 km, 82.5° (Epoch: 21 October)

Event Time Altitude Azimuth Distance (km) Brightness Sun altitude
Rises 20:26:19 0° 357° (N) 3,606 7.6 -16.5°
Reaches altitude 10° 20:28:51 10° 1° (N) 2,659 6.8 -17.0°
Maximum altitude 20:34:51 60° 81° (E) 1,067 4.4 -18.2°
Drops below altitude 10° 20:40:49 10° 161° (SSE) 2,654 6.5 -19.5°
Sets 20:43:21 0° 165° (SSE) 3,598 7.3 -20.0°
